• In Russia
  • List of Countries
  • For 7 days
  • Water Temperature
  • Satellite Maps
  • Weather Map
  • Weather Widgets
  • user-avatar
    Login

    Hourly Weather Ballycastle

    Today, 24 October, Wednesday

    Time Temperature Precipitation Wind Pressure Humidity
    00:00 +10°C° 0 mm 8 mps 769 mmHg 87%
    01:00 +10°C° 0 mm 8 mps 769 mmHg 87%
    02:00 +9°C° 0 mm 8 mps 769 mmHg 87%
    03:00 +9°C° 0 mm 8 mps 769 mmHg 87%
    04:00 +9°C° 0 mm 8 mps 769 mmHg 87%
    05:00 +9°C° 0 mm 8 mps 769 mmHg 86%
    06:00 +9°C° 0 mm 7 mps 769 mmHg 86%
    07:00 +9°C° 0 mm 7 mps 769 mmHg 86%
    08:00 +9°C° 0 mm 7 mps 769 mmHg 86%
    09:00 +9°C° 0 mm 7 mps 769 mmHg 86%
    10:00 +10°C° 0 mm 7 mps 769 mmHg 85%
    11:00 +10°C° 0 mm 7 mps 769 mmHg 84%
    12:00 +10°C° 0 mm 7 mps 769 mmHg 83%
    13:00 +10°C° 0 mm 7 mps 768 mmHg 82%
    14:00 +10°C° 0 mm 7 mps 768 mmHg 82%
    15:00 +10°C° 0 mm 8 mps 768 mmHg 82%
    16:00 +10°C° 0 mm 8 mps 768 mmHg 82%
    17:00 +10°C° 0 mm 8 mps 767 mmHg 83%
    18:00 +9°C° 0 mm 7 mps 767 mmHg 84%
    19:00 +9°C° 0 mm 7 mps 767 mmHg 85%
    20:00 +9°C° 0 mm 7 mps 767 mmHg 85%
    21:00 +9°C° 0 mm 7 mps 767 mmHg 86%
    22:00 +9°C° 0 mm 7 mps 766 mmHg 87%
    23:00 +9°C° 0 mm 7 mps 766 mmHg 87%

    Tomorrow, 25 October, Thursday

    Time Temperature Precipitation Wind Pressure Humidity
    00:00 +9°C° 0 mm 7 mps 766 mmHg 87%
    01:00 +9°C° 0 mm 7 mps 765 mmHg 89%
    02:00 +9°C° 0 mm 7 mps 765 mmHg 91%
    03:00 +9°C° 0 mm 7 mps 764 mmHg 93%
    04:00 +9°C° 0 mm 7 mps 764 mmHg 92%
    05:00 +9°C° 0 mm 7 mps 764 mmHg 91%
    06:00 +9°C° 0 mm 7 mps 764 mmHg 90%
    07:00 +10°C° 0 mm 7 mps 763 mmHg 90%
    08:00 +10°C° 0 mm 7 mps 763 mmHg 90%
    09:00 +10°C° 0 mm 7 mps 763 mmHg 89%
    10:00 +10°C° 0.1 mm 7 mps 763 mmHg 87%
    11:00 +11°C° 0.1 mm 7 mps 763 mmHg 85%
    12:00 +11°C° 0.1 mm 8 mps 762 mmHg 83%
    13:00 +11°C° 0.1 mm 8 mps 762 mmHg 82%
    14:00 +11°C° 0.1 mm 8 mps 761 mmHg 80%
    15:00 +11°C° 0.1 mm 9 mps 760 mmHg 79%
    16:00 +10°C° 0.1 mm 9 mps 760 mmHg 81%
    17:00 +10°C° 0.1 mm 9 mps 759 mmHg 82%
    18:00 +8°C° 0.1 mm 9 mps 759 mmHg 84%
    19:00 +8°C° 0.4 mm 9 mps 759 mmHg 84%
    20:00 +8°C° 0.4 mm 10 mps 758 mmHg 84%
    21:00 +7°C° 0.4 mm 10 mps 758 mmHg 84%
    22:00 +6°C° 0.1 mm 10 mps 758 mmHg 81%
    23:00 +6°C° 0.1 mm 11 mps 758 mmHg 78%

    Day after tomorrow, 26 October, Friday

    Time Temperature Precipitation Wind Pressure Humidity
    00:00 +4°C° 0.1 mm 11 mps 758 mmHg 75%
    01:00 +4°C° 0.2 mm 11 mps 758 mmHg 75%
    02:00 +5°C° 0.2 mm 10 mps 758 mmHg 75%
    03:00 +3°C° 0.2 mm 10 mps 758 mmHg 75%
    04:00 +3°C° 0.2 mm 10 mps 758 mmHg 76%
    05:00 +3°C° 0.2 mm 10 mps 758 mmHg 76%
    06:00 +3°C° 0.2 mm 10 mps 758 mmHg 77%
    07:00 +3°C° 0.1 mm 10 mps 759 mmHg 76%
    08:00 +5°C° 0.1 mm 9 mps 759 mmHg 76%
    09:00 +5°C° 0.1 mm 9 mps 760 mmHg 76%
    10:00 +5°C° 0.2 mm 9 mps 760 mmHg 73%
    11:00 +6°C° 0.2 mm 10 mps 761 mmHg 71%
    12:00 +6°C° 0.2 mm 10 mps 762 mmHg 68%
    13:00 +6°C° 0.1 mm 11 mps 762 mmHg 68%
    14:00 +6°C° 0.1 mm 11 mps 762 mmHg 67%
    15:00 +6°C° 0.1 mm 11 mps 762 mmHg 67%
    16:00 +4°C° 0.2 mm 11 mps 763 mmHg 68%
    17:00 +5°C° 0.2 mm 10 mps 763 mmHg 70%
    18:00 +5°C° 0.2 mm 10 mps 764 mmHg 72%
    19:00 +3°C° 0.1 mm 9 mps 764 mmHg 73%
    20:00 +3°C° 0.1 mm 9 mps 765 mmHg 74%
    21:00 +4°C° 0.1 mm 8 mps 766 mmHg 75%
    22:00 +2°C° 0.1 mm 8 mps 766 mmHg 75%
    23:00 +2°C° 0.1 mm 8 mps 766 mmHg 75%

    27 October, Saturday

    Time Temperature Precipitation Wind Pressure Humidity
    00:00 +2°C° 0.1 mm 8 mps 766 mmHg 75%
    01:00 +2°C° 0.4 mm 8 mps 767 mmHg 76%
    02:00 +2°C° 0.4 mm 8 mps 767 mmHg 76%
    03:00 +2°C° 0.4 mm 8 mps 767 mmHg 77%
    04:00 +2°C° 0.4 mm 8 mps 767 mmHg 77%
    05:00 +1°C° 0.4 mm 8 mps 767 mmHg 77%
    06:00 +1°C° 0.4 mm 8 mps 767 mmHg 76%
    07:00 +1°C° 0.5 mm 8 mps 767 mmHg 78%
    08:00 +1°C° 0.5 mm 8 mps 767 mmHg 81%
    09:00 +1°C° 0.5 mm 8 mps 767 mmHg 83%
    10:00 +2°C° 0.1 mm 9 mps 767 mmHg 79%
    11:00 +2°C° 0.1 mm 9 mps 767 mmHg 76%
    12:00 +3°C° 0.1 mm 9 mps 767 mmHg 73%
    13:00 +3°C° 0.2 mm 10 mps 766 mmHg 74%
    14:00 +3°C° 0.2 mm 10 mps 766 mmHg 76%
    15:00 +3°C° 0.2 mm 11 mps 765 mmHg 77%
    16:00 +3°C° 0.2 mm 11 mps 766 mmHg 77%
    17:00 +3°C° 0.2 mm 11 mps 766 mmHg 76%
    18:00 +3°C° 0.2 mm 11 mps 766 mmHg 76%
    19:00 +3°C° 0 mm 10 mps 766 mmHg 75%
    20:00 +3°C° 0 mm 10 mps 767 mmHg 74%
    21:00 +3°C° 0 mm 9 mps 767 mmHg 73%
    22:00 +2°C° 0 mm 8 mps 768 mmHg 73%
    23:00 +2°C° 0 mm 8 mps 768 mmHg 74%

    28 October, Sunday

    Time Temperature Precipitation Wind Pressure Humidity
    00:00 +3°C° 0 mm 7 mps 768 mmHg 74%
    01:00 +3°C° 0 mm 7 mps 768 mmHg 74%
    02:00 +3°C° 0 mm 6 mps 768 mmHg 75%
    03:00 +2°C° 0 mm 6 mps 769 mmHg 75%
    04:00 +2°C° 0 mm 5 mps 769 mmHg 75%
    05:00 +2°C° 0 mm 5 mps 769 mmHg 75%
    06:00 +3°C° 0 mm 4 mps 769 mmHg 75%
    07:00 +4°C° 0 mm 4 mps 769 mmHg 75%
    08:00 +4°C° 0 mm 3 mps 769 mmHg 75%
    09:00 +5°C° 0 mm 3 mps 769 mmHg 74%
    10:00 +6°C° 0 mm 2 mps 769 mmHg 70%
    11:00 +7°C° 0 mm 2 mps 769 mmHg 66%
    12:00 +9°C° 0 mm 1 mps 769 mmHg 62%
    13:00 +9°C° 0 mm 1 mps 768 mmHg 64%
    14:00 +9°C° 0 mm 1 mps 768 mmHg 66%
    15:00 +9°C° 0 mm 1 mps 767 mmHg 67%
    16:00 +8°C° 0 mm 1 mps 767 mmHg 71%
    17:00 +5°C° 0 mm 2 mps 767 mmHg 76%
    18:00 +4°C° 0 mm 2 mps 766 mmHg 80%
    19:00 +3°C° 0 mm 3 mps 766 mmHg 81%
    20:00 +3°C° 0 mm 4 mps 765 mmHg 82%
    21:00 +3°C° 0 mm 4 mps 765 mmHg 84%
    22:00 +2°C° 0 mm 5 mps 764 mmHg 83%
    23:00 +2°C° 0 mm 6 mps 763 mmHg 82%

    29 October, Monday

    Time Temperature Precipitation Wind Pressure Humidity
    00:00 +2°C° 0 mm 7 mps 763 mmHg 82%
    01:00 +2°C° 0 mm 7 mps 762 mmHg 81%
    02:00 +2°C° 0 mm 7 mps 761 mmHg 81%
    03:00 +1°C° 0 mm 8 mps 760 mmHg 80%
    04:00 +1°C° 0 mm 8 mps 759 mmHg 79%
    05:00 +1°C° 0 mm 9 mps 758 mmHg 79%
    06:00 +2°C° 0 mm 9 mps 757 mmHg 78%
    07:00 +2°C° 0.2 mm 10 mps 756 mmHg 76%
    08:00 +2°C° 0.2 mm 10 mps 756 mmHg 75%
    09:00 +2°C° 0.2 mm 11 mps 755 mmHg 73%
    10:00 +3°C° 0.5 mm 11 mps 754 mmHg 76%
    11:00 +3°C° 0.5 mm 11 mps 753 mmHg 78%
    12:00 +3°C° 0.5 mm 11 mps 753 mmHg 81%
    13:00 +3°C° 0.9 mm 11 mps 752 mmHg 82%
    14:00 +3°C° 0.9 mm 11 mps 751 mmHg 84%
    15:00 +3°C° 0.9 mm 10 mps 751 mmHg 85%
    16:00 +3°C° 1.2 mm 10 mps 751 mmHg 87%
    17:00 +3°C° 1.2 mm 10 mps 750 mmHg 88%
    18:00 +3°C° 1.2 mm 9 mps 750 mmHg 89%
    19:00 +3°C° 1 mm 10 mps 750 mmHg 88%
    20:00 +3°C° 1 mm 10 mps 750 mmHg 87%
    21:00 +3°C° 1 mm 10 mps 750 mmHg 86%
    22:00 +3°C° 0.6 mm 10 mps 750 mmHg 86%
    23:00 +3°C° 0.6 mm 9 mps 750 mmHg 85%

    30 October, Tuesday

    Time Temperature Precipitation Wind Pressure Humidity
    00:00 +3°C° 0.6 mm 9 mps 750 mmHg 85%
    01:00 +4°C° 0.5 mm 8 mps 750 mmHg 84%
    02:00 +4°C° 0.5 mm 8 mps 749 mmHg 84%
    03:00 +4°C° 0.5 mm 7 mps 749 mmHg 84%
    04:00 +3°C° 0.2 mm 7 mps 749 mmHg 83%
    05:00 +3°C° 0.2 mm 6 mps 749 mmHg 83%
    06:00 +3°C° 0.2 mm 6 mps 749 mmHg 83%
    07:00 +4°C° 0.1 mm 6 mps 749 mmHg 83%
    08:00 +4°C° 0.1 mm 6 mps 750 mmHg 83%
    09:00 +4°C° 0.1 mm 6 mps 750 mmHg 83%
    10:00 +5°C° 0.1 mm 6 mps 750 mmHg 81%
    11:00 +5°C° 0.1 mm 6 mps 749 mmHg 79%
    12:00 +7°C° 0.1 mm 6 mps 749 mmHg 77%
    13:00 +7°C° 0.1 mm 6 mps 749 mmHg 78%
    14:00 +7°C° 0.1 mm 5 mps 749 mmHg 78%
    15:00 +7°C° 0.1 mm 5 mps 749 mmHg 78%
    16:00 +6°C° 0 mm 5 mps 749 mmHg 80%
    17:00 +5°C° 0 mm 5 mps 749 mmHg 82%
    18:00 +4°C° 0 mm 4 mps 749 mmHg 84%
    19:00 +4°C° 0 mm 4 mps 749 mmHg 84%
    20:00 +4°C° 0 mm 4 mps 749 mmHg 84%
    21:00 +4°C° 0 mm 4 mps 748 mmHg 84%
    22:00 +4°C° 0 mm 4 mps 748 mmHg 85%
    23:00 +4°C° 0 mm 4 mps 748 mmHg 86%
    Show more